DW6997 Weather Reports


Display with metric or nautical units.
time (UTC)temp
F
wind
direction
speed
MPH
gust
MPH
rain 1hr
in
rain 24hr
in
rain mn
in
humidity
%
barometer
mb
20210423001004 41 91 2.0 5.0 0.00 0.00 0.00 67 1027.3
20210423000004 41 91 2.0 5.0 0.00 0.00 0.00 67 1027.3
20210422235006 42 91 2.0 6.0 0.00 0.00 0.00 67 1027.4
20210422234004 42 91 2.0 5.0 0.00 0.00 0.00 67 1027.2
20210422233004 42 91 2.0 5.0 0.00 0.00 0.00 67 1027.2
20210422232004 42 91 1.0 3.0 0.00 0.00 0.00 67 1027.2
20210422231004 43 91 1.0 3.0 0.00 0.00 0.00 66 1027.1
20210422230004 43 91 2.0 5.0 0.00 0.00 0.00 66 1027.0
20210422225004 44 91 2.0 5.0 0.00 0.00 0.00 65 1026.9
20210422224004 44 91 3.0 6.0 0.00 0.00 0.00 65 1026.8
20210422223004 44 91 2.0 5.0 0.00 0.00 0.00 64 1026.8
20210422222004 45 91 2.0 5.0 0.00 0.00 0.00 63 1026.8
20210422221005 45 91 2.0 3.0 0.00 0.00 0.00 63 1026.7
20210422220004 45 91 2.0 3.0 0.00 0.00 0.00 61 1026.6
20210422215004 46 91 2.0 3.0 0.00 0.00 0.00 60 1026.6
20210422214004 46 91 2.0 5.0 0.00 0.00 0.00 59 1026.6
20210422213004 47 91 3.0 5.0 0.00 0.00 0.00 58 1026.5
20210422212004 47 91 3.0 5.0 0.00 0.00 0.00 57 1026.6
20210422211005 48 91 3.0 6.0 0.00 0.00 0.00 56 1026.5
20210422210004 48 91 3.0 6.0 0.00 0.00 0.00 55 1026.5
20210422205004 48 91 3.0 7.0 0.00 0.00 0.00 54 1026.4
20210422204005 49 91 2.0 5.0 0.00 0.00 0.00 54 1026.4
20210422203005 49 91 2.0 5.0 0.00 0.00 0.00 53 1026.4
20210422202005 50 91 2.0 5.0 0.00 0.00 0.00 52 1026.4
20210422201005 50 91 1.0 3.0 0.00 0.00 0.00 51 1026.2
20210422200004 51 91 2.0 3.0 0.00 0.00 0.00 50 1026.2
20210422195005 51 91 2.0 5.0 0.00 0.00 0.00 48 1026.1
20210422194005 52 91 1.0 5.0 0.00 0.00 0.00 47 1026.1
20210422193005 53 91 1.0 3.0 0.00 0.00 0.00 45 1026.0
20210422192004 53 91 2.0 5.0 0.00 0.00 0.00 44 1025.9
20210422191005 54 91 2.0 6.0 0.00 0.00 0.00 43 1025.9
20210422190006 54 91 1.0 5.0 0.00 0.00 0.00 42 1025.9
20210422185005 55 91 2.0 5.0 0.00 0.00 0.00 42 1025.9
20210422184008 55 91 3.0 7.0 0.00 0.00 0.00 40 1025.8
20210422183008 55 91 4.0 8.0 0.00 0.00 0.00 40 1025.7
20210422182004 56 90 4.0 8.0 0.00 0.00 0.00 38 1025.7
20210422181004 56 87 4.0 7.0 0.00 0.00 0.00 38 1025.6
20210422180005 56 88 4.0 9.0 0.00 0.00 0.00 37 1025.6
20210422175004 56 83 5.0 9.0 0.00 0.00 0.00 37 1025.5
20210422174005 57 93 4.0 8.0 0.00 0.00 0.00 36 1025.5
20210422173005 57 94 5.0 8.0 0.00 0.00 0.00 36 1025.5
20210422172005 57 101 4.0 10.0 0.00 0.00 0.00 35 1025.7
20210422171005 57 108 4.0 10.0 0.00 0.00 0.00 35 1025.7
20210422170005 58 77 4.0 11.0 0.00 0.00 0.00 36 1025.7
20210422165005 58 103 3.0 10.0 0.00 0.00 0.00 35 1025.7
20210422164005 58 107 4.0 10.0 0.00 0.00 0.00 35 1025.7
20210422163006 58 105 3.0 9.0 0.00 0.00 0.00 36 1025.7
20210422162006 58 116 5.0 11.0 0.00 0.00 0.00 35 1025.7
20210422161006 58 102 3.0 10.0 0.00 0.00 0.00 35 1025.7
20210422160004 58 111 5.0 9.0 0.00 0.00 0.00 36 1025.7
20210422155007 58 101 5.0 10.0 0.00 0.00 0.00 35 1025.7
20210422154005 58 77 4.0 11.0 0.00 0.00 0.00 35 1025.8
20210422153005 57 90 5.0 9.0 0.00 0.00 0.00 35 1025.8
20210422152005 57 94 4.0 10.0 0.00 0.00 0.00 36 1025.9
20210422151005 58 105 5.0 9.0 0.00 0.00 0.00 32 1025.9
20210422150005 58 90 5.0 13.0 0.00 0.00 0.00 34 1025.9
20210422145004 58 101 6.0 10.0 0.00 0.00 0.00 35 1025.9
20210422144006 57 100 5.0 11.0 0.00 0.00 0.00 36 1025.9
20210422143004 58 92 4.0 9.0 0.00 0.00 0.00 36 1025.9
20210422142005 58 105 5.0 10.0 0.00 0.00 0.00 35 1026.0
20210422141005 57 76 5.0 11.0 0.00 0.00 0.00 33 1026.0
20210422140005 57 81 6.0 14.0 0.00 0.00 0.00 34 1026.1
20210422135005 57 76 5.0 13.0 0.00 0.00 0.00 34 1026.1
20210422134005 57 80 4.0 8.0 0.00 0.00 0.00 33 1026.1
20210422133004 56 102 6.0 13.0 0.00 0.00 0.00 34 1026.1
20210422132006 56 90 7.0 15.0 0.00 0.00 0.00 32 1026.1
20210422131005 56 96 6.0 11.0 0.00 0.00 0.00 33 1026.1
20210422130005 56 81 6.0 13.0 0.00 0.00 0.00 32 1026.1
20210422125005 56 76 7.0 13.0 0.00 0.00 0.00 34 1026.1
20210422124005 55 87 6.0 14.0 0.00 0.00 0.00 34 1026.1
20210422123006 55 90 6.0 13.0 0.00 0.00 0.00 34 1026.2
20210422122004 55 80 6.0 11.0 0.00 0.00 0.00 35 1026.2
20210422121004 55 77 6.0 14.0 0.00 0.00 0.00 33 1026.2
20210422120005 55 78 5.0 15.0 0.00 0.00 0.00 35 1026.3
20210422115004 55 114 4.0 10.0 0.00 0.00 0.00 39 1026.4
20210422114008 54 79 5.0 10.0 0.00 0.00 0.00 38 1026.4
20210422113005 53 96 6.0 13.0 0.00 0.00 0.00 38 1026.4
20210422112005 53 71 7.0 15.0 0.00 0.00 0.00 40 1026.4
20210422111005 52 75 7.0 17.0 0.00 0.00 0.00 42 1026.5
20210422110007 52 75 4.0 11.0 0.00 0.00 0.00 42 1026.6
20210422105004 52 95 5.0 10.0 0.00 0.00 0.00 46 1026.6
20210422104006 51 90 5.0 10.0 0.00 0.00 0.00 48 1026.7
20210422103007 51 131 5.0 9.0 0.00 0.00 0.00 49 1026.8
20210422102006 50 108 5.0 10.0 0.00 0.00 0.00 51 1026.9
20210422101005 49 68 5.0 9.0 0.00 0.00 0.00 53 1027.0
20210422100005 49 88 5.0 11.0 0.00 0.00 0.00 54 1027.0
20210422095004 49 118 5.0 11.0 0.00 0.00 0.00 55 1027.0
20210422094006 49 80 4.0 10.0 0.00 0.00 0.00 58 1027.1
20210422093005 48 91 4.0 9.0 0.00 0.00 0.00 62 1027.1
20210422092005 47 113 4.0 10.0 0.00 0.00 0.00 63 1027.1
20210422091004 47 81 4.0 8.0 0.00 0.00 0.00 65 1027.1
20210422090009 46 87 4.0 7.0 0.00 0.00 0.00 68 1027.1
20210422085007 45 86 4.0 9.0 0.00 0.00 0.00 68 1027.3
20210422084004 45 122 4.0 8.0 0.00 0.00 0.00 70 1027.2
20210422083006 45 132 5.0 7.0 0.00 0.00 0.00 71 1027.2
20210422082005 44 97 4.0 10.0 0.00 0.00 0.00 72 1027.3
20210422081005 43 81 3.0 8.0 0.00 0.00 0.00 74 1027.1
20210422080005 43 73 2.0 5.0 0.00 0.00 0.00 74 1027.1
20210422075005 43 73 2.0 5.0 0.00 0.00 0.00 76 1027.1
20210422074005 43 73 1.0 5.0 0.00 0.00 0.00 76 1027.2
20210422073006 42 73 1.0 4.0 0.00 0.00 0.00 77 1027.2
20210422072005 42 73 1.0 3.0 0.00 0.00 0.00 77 1027.2
20210422071004 42 73 1.0 2.0 0.00 0.00 0.00 80 1027.2
20210422070005 41 73 0.0 2.0 0.00 0.00 0.00 82 1027.1
20210422065005 40 73 1.0 2.0 0.00 0.00 0.00 83 1027.1
20210422064004 39 73 1.0 2.0 0.00 0.00 0.00 86 1027.0
20210422063006 38 73 2.0 3.0 0.00 0.00 0.00 87 1026.9
20210422062004 37 73 2.0 4.0 0.00 0.00 0.00 88 1026.9
20210422061005 36 73 1.0 3.0 0.00 0.00 0.00 89 1026.7
20210422060004 35 73 1.0 3.0 0.00 0.00 0.00 89 1026.7
20210422055004 34 0 0.0 3.0 0.00 0.00 0.00 90 1026.6
20210422054006 33 0 0.0 0.0 0.00 0.00 0.00 89 1026.4
20210422053008 32 0 0.0 1.0 0.00 0.00 0.00 89 1026.2
20210422052005 32 73 1.0 1.0 0.00 0.00 0.00 89 1026.1
20210422051006 32 73 2.0 3.0 0.00 0.00 0.00 89 1026.1
20210422050006 32 73 1.0 4.0 0.00 0.00 0.00 89 1026.1
20210422045005 32 73 0.0 3.0 0.00 0.00 0.00 88 1026.1
20210422044005 32 0 0.0 1.0 0.00 0.00 0.00 88 1026.0
20210422043007 32 0 0.0 2.0 0.00 0.00 0.00 88 1025.9
20210422042005 32 0 0.0 1.0 0.00 0.00 0.00 87 1025.9
20210422041005 32 0 0.0 0.0 0.00 0.00 0.00 87 1025.9
20210422040005 32 0 0.0 0.0 0.00 0.00 0.00 87 1025.8
20210422035005 32 0 0.0 0.0 0.00 0.00 0.00 87 1025.9
20210422034005 32 0 0.0 0.0 0.00 0.00 0.00 87 1025.9
20210422033005 33 0 0.0 1.0 0.00 0.00 0.00 86 1026.0
20210422032005 33 73 1.0 3.0 0.00 0.00 0.00 86 1026.0
20210422031005 33 73 0.0 2.0 0.00 0.00 0.00 86 1026.1
20210422030006 33 0 0.0 0.0 0.00 0.00 0.00 86 1026.0
20210422025006 33 73 1.0 2.0 0.00 0.00 0.00 86 1025.9
20210422024021 33 73 1.0 2.0 0.00 0.00 0.00 85 1025.8
20210422023010 33 73 0.0 2.0 0.00 0.00 0.00 85 1025.8
20210422022012 33 0 0.0 0.0 0.00 0.00 0.00 84 1025.8
20210422021010 34 0 0.0 1.0 0.00 0.00 0.00 84 1025.6
20210422020007 34 0 0.0 0.0 0.00 0.00 0.00 83 1025.6
20210422015004 34 0 0.0 2.0 0.00 0.00 0.00 83 1025.6
20210422014005 34 73 1.0 2.0 0.00 0.00 0.00 82 1025.5
20210422013005 34 73 1.0 2.0 0.00 0.00 0.00 82 1025.4
20210422012005 35 0 0.0 2.0 0.00 0.00 0.00 82 1025.3
20210422011004 35 0 0.0 1.0 0.00 0.00 0.00 81 1025.4
20210422010005 35 0 0.0 0.0 0.00 0.00 0.00 81 1025.3
20210422005008 36 0 0.0 2.0 0.00 0.00 0.00 81 1025.3
20210422004006 36 0 0.0 0.0 0.00 0.00 0.00 80 1025.3
20210422003005 36 0 0.0 1.0 0.00 0.00 0.00 80 1025.3
20210422002005 37 0 0.0 0.0 0.00 0.00 0.00 79 1025.2